SCP
0 0 0 0 0 0 0 0 0 0 0 0 0 0 0 0 0 0 0 0 0 0 0 0 0 0 0 0 0 0 0 0 0 0 0 0 0 0 0 0 0 0 0 0
0 0 0 0 0 0 0 0 0 0 0 0 0 0 0 0 0 0 0 0 0 0 0 0 0 0 0 0 0 0 0 0 0 0 0 0 0 0 0 0 0 0 0 0
0 0 0 0 0 0 0 0 0 0 0 0 0 0 0 0 0 0 0 0 0 0 0 0 0 0 0 0 0 0 0 0 0 0 0 0 0 0 0 0 0 0 0 0
0 0 0 0 0 0 0 0 0 0 0 0 0 0 0 0 0 0 0 0 0 0 0 0 0 0 0 0 0 0 0 0 0 0 0 0 0 0 0 0 0 0 0 0
0 0 0 0 0 0 0 0 0 0 0 0 0 0 0 0 0 0 0 0 0 0 0 0 0 0 0 0 0 0 0 1 1 1 0 0 0 0 0 0 0 0 0 0
0 0 0 0 0 0 0 0 0 0 0 0 0 0 0 0 0 0 0 0 0 0 0 0 0 0 0 0 0 0 0 1 1 1 1 1 0 0 0 0 0 0 0 0
0 0 0 0 0 0 0 0 0 0 0 0 0 0 0 0 0 0 0 0 0 0 0 0 0 0 0 0 0 0 1 1 1 1 1 1 0 0 0 0 0 0 0 0
0 0 0 0 0 0 0 0 0 0 0 0 0 0 0 0 0 0 0 0 0 0 0 0 0 0 0 0 0 0 1 1 1 1 1 0 0 0 0 0 0 0 0 0
0 0 0 0 0 0 0 0 0 0 0 0 0 0 0 0 0 0 0 0 0 0 0 0 0 0 0 0 0 0 0 0 1 1 0 0 0 0 0 0 0 0 0 0
0 0 0 0 0 0 0 0 0 0 0 0 0 0 0 0 0 0 0 0 0 0 0 0 0 0 0 0 0 0 0 0 0 0 0 0 0 0 0 0 0 0 0 0
0 0 0 0 0 0 0 0 0 0 0 0 0 0 0 0 0 0 0 0 0 0 0 0 0 0 0 0 0 0 0 0 0 0 0 0 1 1 1 1 1 1 1 1
0 0 0 0 0 0 0 0 0 0 0 0 0 0 0 0 0 0 0 0 0 0 0 0 0 0 0 0 0 0 0 0 0 0 1 1 1 1 1 1 1 1 1 1
0 0 0 0 0 0 0 0 0 0 0 0 0 0 0 0 0 0 0 0 0 0 0 0 0 0 0 0 0 0 0 1 1 1 1 1 1 1 1 1 1 1 1 1
0 0 0 0 0 0 0 0 0 0 0 0 0 0 0 0 0 0 0 0 0 0 1 1 1 0 0 0 0 0 0 1 1 1 1 1 1 1 1 1 1 1 1 1
0 0 0 0 0 0 0 0 0 0 0 0 0 0 0 0 0 0 0 0 0 0 1 1 1 1 0 0 0 0 1 1 1 1 1 1 1 1 1 1 1 1 1 1
0 0 0 0 0 0 0 0 0 0 0 0 0 0 0 0 0 0 0 0 0 0 1 1 1 1 0 0 0 1 1 1 1 1 1 1 1 1 1 1 1 1 1 1
0 0 0 0 0 0 0 0 0 0 0 0 0 0 0 0 0 0 0 0 0 0 1 1 1 1 0 0 1 1 1 1 1 1 1 1 1 1 1 1 1 1 1 1
0 0 0 0 0 0 0 0 0 0 0 0 0 0 0 0 0 0 0 0 0 0 1 1 1 1 0 0 1 1 1 1 1 1 1 1 1 1 0 0 1 1 1 1
0 0 0 0 0 0 0 0 0 0 0 0 0 0 0 0 0 0 0 0 0 0 1 1 1 0 0 0 1 1 1 1 1 1 1 1 1 1 1 0 1 1 1 1
0 0 0 0 0 0 0 0 0 0 0 0 0 0 0 0 0 0 0 0 0 0 1 0 0 0 0 0 1 1 1 1 1 1 1 1 1 1 1 1 1 1 1 1
0 0 0 0 0 0 0 0 0 0 0 0 0 0 0 0 0 0 0 1 1 1 0 0 0 0 0 0 0 0 1 1 1 1 1 1 1 1 1 1 1 1 1 1
0 0 0 0 0 0 0 0 0 0 0 0 0 0 0 0 0 1 1 1 1 1 0 0 0 0 0 0 0 0 0 1 0 0 0 0 0 0 0 0 1 1 1 1
-0 0 0 0 0 0 0 0 0 0 0 0 0 0 0 0 1 1 1 1 1 1 0 0 0 0 0 0 0 0 0 0 0 0 0 0 0 0 0 0 0 0 0 0
0 0 0 0 0 0 0 0 0 0 0 0 0 0 0 0 1 1 1 1 1 1 0 0 0 0 0 0 0 0 0 0 0 0 0 0 0 0 0 0 0 0 0 0
0 0 0 0 0 0 0 0 0 0 0 0 0 0 0 1 1 1 1 1 1 1 0 0 0 0 0 0 0 0 0 0 0 0 0 0 0 0 0 0 0 0 0 0
-0 0 0 0 0 0 0 0 0 0 0 0 0 0 0 0 1 1 1 1 1 0 0 0 0 0 0 0 0 0 0 0 0 0 0 0 0 0 0 0 0 0 0 0
Wind_Speed
7 8 6 3 4 6 6 5 3 1 1 3 2 0 3 5 5 5 5 6 5 5 5 6 6 6 6 6 6 6 6 5 4 3 3 3 2 2 1 1 1 1 1 1
8 8 4 4 4 6 6 6 2 0 0 3 3 1 3 4 5 4 5 5 5 6 6 6 6 6 7 6 6 7 7 6 5 4 2 2 1 2 2 1 1 1 1 2
10 2 1 5 6 6 6 5 3 2 2 4 4 3 5 5 5 5 5 5 5 5 6 7 7 7 7 7 7 6 6 6 5 5 3 2 2 2 2 2 1 1 1 2
7 5 5 7 6 6 5 2 4 4 6 3 5 3 4 5 6 6 6 6 6 6 6 6 7 8 7 7 7 7 6 6 5 6 4 4 3 2 1 1 0 1 1 2
7 6 7 7 4 5 3 2 4 6 7 6 5 6 2 4 4 5 6 6 6 6 6 6 5 6 7 7 6 6 6 6 5 5 5 5 3 2 1 1 0 2 1 1
7 5 5 5 3 4 3 5 6 7 8 7 3 6 1 1 1 2 4 6 6 6 5 5 5 5 5 5 6 6 6 6 6 6 5 4 3 2 2 2 1 2 1 1
10 8 6 5 6 7 8 8 6 7 6 4 2 5 1 3 2 0 2 4 6 6 6 5 5 5 5 5 5 5 6 6 6 6 5 5 4 3 3 3 2 2 2 1
10 9 7 6 8 6 8 10 8 7 6 3 4 3 1 4 3 1 1 3 4 5 6 6 6 5 5 6 6 5 5 5 5 5 5 4 4 3 3 2 3 2 2 2
7 6 5 4 5 7 7 8 7 9 9 8 4 3 3 2 2 2 3 4 4 4 5 6 6 5 5 5 6 6 6 5 5 5 5 4 4 3 2 2 3 2 2 2
7 7 5 4 7 4 7 6 6 8 7 9 6 5 2 2 2 2 3 3 4 4 4 5 5 5 5 5 5 5 6 5 5 5 5 4 4 4 3 2 2 2 2 2
9 9 7 7 7 6 6 7 6 6 7 9 7 1 3 1 0 1 2 3 3 3 4 4 4 5 5 5 5 5 5 5 5 4 4 3 3 3 3 2 2 2 2 2
7 9 7 7 4 5 6 6 8 7 7 8 8 1 4 2 1 1 2 2 2 3 3 3 4 4 4 5 5 5 4 4 5 4 4 3 3 3 2 2 2 3 3 3
4 7 8 9 9 7 7 7 8 8 8 8 10 3 4 3 1 1 1 2 3 2 2 3 3 3 3 4 4 4 4 4 4 4 4 3 3 3 2 2 2 2 3 3
5 8 9 9 5 4 6 7 8 10 9 9 9 6 3 1 1 0 1 1 2 2 2 2 2 2 3 3 3 3 3 3 3 3 4 3 3 3 3 2 3 3 3 3
6 7 7 7 6 6 7 7 7 9 9 10 8 7 4 2 2 1 1 1 1 2 2 2 2 2 2 3 3 2 2 2 2 3 3 3 3 3 3 3 3 3 3 4
3 5 7 8 7 7 7 7 8 8 8 9 9 6 2 2 1 1 1 1 0 1 0 1 1 2 2 3 3 3 3 3 2 3 3 3 3 3 3 3 3 3 4 4
4 5 7 8 7 9 10 7 7 7 6 7 8 3 1 1 1 0 1 1 2 1 1 0 1 2 2 2 2 3 3 2 3 3 3 3 3 3 3 3 3 3 4 4
4 6 6 7 7 11 2 1 4 6 5 4 3 2 1 2 1 1 2 2 2 2 2 1 1 1 1 1 2 2 2 3 3 4 3 3 3 3 3 3 3 3 3 4
5 6 6 7 10 8 4 3 4 5 5 2 2 1 0 1 2 3 3 3 3 2 2 2 1 1 1 1 2 2 2 3 3 3 3 3 3 4 4 4 3 3 3 3
5 6 8 8 11 10 3 4 2 5 6 2 1 1 0 2 5 2 3 3 3 3 2 2 1 1 1 1 2 2 3 2 2 2 3 3 3 3 3 3 3 3 3 3
7 7 10 10 11 6 3 4 4 7 1 2 0 0 1 1 4 4 2 2 2 2 2 2 1 1 0 1 2 2 2 2 2 2 2 2 3 3 3 2 2 3 3 3
8 7 8 8 11 5 4 3 3 3 3 1 0 1 1 1 2 2 2 2 2 2 2 2 1 1 1 1 2 3 3 2 2 2 2 2 2 3 2 2 3 3 3 3
6 5 4 4 2 4 2 1 2 1 0 0 1 1 1 0 0 1 1 1 1 2 2 2 1 1 1 1 2 3 2 2 2 2 3 2 2 2 2 2 3 3 3 4
3 2 4 4 3 1 1 1 0 0 1 1 1 1 1 1 1 1 1 1 1 1 2 2 2 2 2 2 2 2 2 2 2 3 3 2 2 2 2 2 3 3 3 3
3 4 5 6 4 3 4 2 1 1 1 0 1 1 2 2 1 1 1 1 1 2 2 2 3 3 3 2 2 2 2 2 3 3 3 2 2 2 2 2 2 3 3 4
5 5 6 5 2 4 3 2 3 3 2 1 1 1 1 2 2 2 1 1 2 2 2 3 3 2 2 2 2 2 2 2 3 3 3 2 2 2 2 2 2 2 2 2
Wind_Direction
206 230 231 248 281 312 306 297 304 11 356 274 272 94 130 156 175 175 175 175 177 184 174 175 182 183 178 176 178 182 182 177 184 186 192 187 193 214 212 206 202 241 276 269
216 229 253 274 260 268 272 274 270 157 299 272 279 248 141 163 177 180 183 184 179 180 176 179 181 182 184 182 184 182 184 185 191 188 191 200 216 233 212 235 196 260 260 268
238 247 229 245 240 252 259 276 285 278 252 227 256 203 157 162 176 180 186 184 179 178 182 180 185 191 190 188 190 189 187 187 195 193 190 187 193 241 216 204 203 248 261 257
236 241 239 242 243 263 262 290 275 248 247 227 258 270 141 169 184 189 192 191 186 179 182 180 184 191 194 195 189 188 185 188 191 194 203 211 218 236 250 251 224 245 246 260
214 221 234 243 253 259 293 286 254 251 257 258 232 268 127 151 201 200 196 195 188 184 183 179 184 189 191 192 189 183 183 187 188 198 202 214 229 235 240 238 213 266 231 253
240 224 248 258 249 234 215 216 219 232 247 251 253 268 307 124 251 197 183 188 183 177 178 176 172 172 176 179 183 180 177 183 185 194 203 206 219 245 258 251 257 251 239 237
216 212 211 228 226 205 226 242 239 230 229 244 195 257 349 41 45 357 183 175 171 173 178 178 173 170 169 173 176 177 175 180 183 187 193 192 202 217 229 250 247 272 278 273
218 208 197 214 238 241 234 256 269 281 282 268 189 244 63 80 73 76 150 156 158 168 170 173 174 172 172 172 173 171 168 174 177 184 192 196 203 218 221 231 265 263 286 302
234 223 180 199 233 253 238 244 275 273 271 274 244 194 161 135 140 119 124 137 152 161 158 165 171 170 173 177 175 175 171 175 183 190 193 196 203 222 229 220 236 257 267 273
247 241 209 198 209 213 270 261 241 251 270 271 250 235 233 171 152 137 127 128 138 148 153 157 165 169 169 174 175 183 179 179 187 192 198 189 196 203 212 226 233 259 270 281
240 236 214 207 228 229 209 224 255 262 274 278 277 282 51 71 122 149 128 113 121 140 149 155 157 159 165 169 170 175 178 180 186 194 194 197 187 186 194 209 224 233 246 252
230 244 237 222 209 263 245 247 249 254 251 264 280 294 85 84 78 130 129 111 106 118 135 146 148 147 158 167 171 170 175 185 188 187 189 184 188 189 194 203 224 229 234 243
209 239 231 214 196 198 228 236 250 260 256 259 266 241 130 126 61 87 110 113 113 123 125 127 136 144 156 165 166 167 183 191 190 184 188 186 192 196 211 214 223 240 248 254
250 243 255 261 266 229 224 232 243 253 256 260 264 268 228 227 292 324 100 109 129 130 123 126 139 145 151 169 170 172 183 184 187 193 201 195 205 212 215 213 225 236 248 255
240 241 245 259 260 252 245 244 237 245 264 275 281 275 279 324 341 4 47 92 120 116 122 135 155 150 161 171 183 192 192 188 189 201 215 210 216 219 224 226 232 243 255 258
249 247 241 239 235 239 243 246 242 242 255 264 269 268 1 0 14 13 35 358 33 93 83 134 159 171 184 189 193 198 202 198 198 214 219 210 220 223 229 235 241 248 257 268
227 228 244 240 230 240 237 238 242 240 248 266 269 295 323 293 321 320 7 344 341 4 357 270 206 196 208 199 208 214 211 203 207 221 227 217 221 229 237 244 249 257 263 266
236 242 246 248 227 243 237 199 253 250 246 254 273 292 276 303 306 131 45 3 343 348 335 317 272 234 227 201 211 233 216 215 224 225 226 226 228 232 235 241 250 258 265 269
230 234 247 246 241 238 194 196 221 239 238 235 269 272 351 335 219 138 50 1 345 343 333 319 300 271 247 212 208 226 233 229 235 243 247 245 241 238 241 245 254 261 268 270
192 226 244 244 254 256 208 149 206 246 228 180 248 234 208 245 252 82 46 358 350 2 355 342 324 283 201 218 219 229 239 241 252 262 267 266 259 253 252 256 261 263 263 260
201 214 235 245 252 252 102 133 198 236 283 100 246 218 230 278 345 28 15 6 359 8 11 356 337 311 252 231 236 247 256 266 279 283 279 273 266 257 254 259 259 262 266 272
238 233 232 245 250 241 106 173 232 14 47 88 347 284 294 22 28 34 20 9 12 18 14 353 348 322 301 248 241 254 263 283 289 281 274 275 277 273 265 258 261 269 273 263
252 286 282 276 308 57 89 67 40 32 52 60 315 339 326 285 33 31 15 15 24 17 10 335 322 305 310 291 270 269 278 283 280 278 279 273 269 276 282 270 265 262 261 269
208 269 262 250 226 226 182 153 169 264 292 307 311 312 293 288 294 1 357 348 344 347 341 324 316 310 319 317 292 284 280 270 266 274 276 267 260 266 276 278 277 284 288 286
278 240 247 247 249 246 220 210 205 227 241 276 319 328 319 309 298 297 298 313 311 316 317 316 310 308 315 310 294 293 281 265 270 271 269 264 261 269 272 275 299 295 308 311
233 245 258 273 257 261 249 233 246 239 235 240 263 309 307 299 297 290 284 298 309 312 308 304 297 301 310 297 288 295 293 273 265 264 266 262 252 249 256 265 296 345 289 297